EW7556 Weather Reports


Display with metric or nautical units.
time (UTC)temp
F
wind
direction
speed
MPH
gust
MPH
rain 1hr
in
rain 24hr
in
rain mn
in
humidity
%
barometer
mb
20260508033017 50 214 0.0 2.0 0.00 0.00 0.00 85 1017.5
20260508031514 51 238 0.0 3.0 0.00 0.00 0.00 84 1017.4
20260508030125 51 213 1.0 4.0 0.00 0.00 0.00 83 1017.5
20260508024505 51 219 2.0 5.0 0.00 0.00 0.00 84 1017.5
20260508023016 51 204 2.0 8.0 0.00 0.00 0.00 84 1017.7
20260508021514 51 231 2.0 6.0 0.00 0.00 0.00 84 1017.9
20260508020121 51 197 3.0 7.0 0.00 0.00 0.00 84 1018.0
20260508014506 52 220 2.0 9.0 0.00 0.00 0.00 82 1018.1
20260508013006 53 210 4.0 8.0 0.00 0.00 0.00 80 1018.2
20260508011509 54 203 4.0 10.0 0.00 0.00 0.00 82 1018.3
20260508010117 55 225 5.0 9.0 0.00 0.00 0.00 81 1018.3
20260508004517 55 211 3.0 8.0 0.00 0.00 0.00 79 1018.3
20260508003019 57 200 3.0 7.0 0.00 0.00 0.00 75 1018.4
20260508001526 59 217 3.0 6.0 0.00 0.00 0.00 71 1018.3
20260508000004 60 239 1.0 4.0 0.00 0.00 0.00 71 1018.3
20260507234508 60 230 2.0 4.0 0.00 0.00 0.00 72 1018.4
20260507233011 60 339 1.0 3.0 0.00 0.00 0.00 73 1018.4
20260507231515 60 323 2.0 5.0 0.00 0.00 0.00 73 1018.5
20260507230121 61 301 2.0 6.0 0.00 0.00 0.00 73 1018.6
20260507224503 61 347 2.0 6.0 0.00 0.00 0.00 70 1018.7
20260507223007 61 342 1.0 4.0 0.00 0.00 0.00 71 1018.8
20260507221524 61 355 2.0 5.0 0.00 0.00 0.00 71 1019.0
20260507220004 61 344 1.0 5.0 0.00 0.00 0.00 71 1019.1
20260507214508 61 326 0.0 5.0 0.00 0.00 0.00 72 1019.2
20260507213123 60 342 1.0 4.0 0.00 0.00 0.00 72 1019.4
20260507211530 60 353 1.0 6.0 0.00 0.00 0.00 71 1019.6
20260507210042 60 276 1.0 5.0 0.00 0.00 0.00 74 1019.7
20260507204527 60 221 2.0 7.0 0.00 0.00 0.00 70 1019.9
20260507203031 59 240 1.0 7.0 0.00 0.00 0.00 70 1020.1
20260507201537 59 252 2.0 6.0 0.00 0.00 0.00 74 1020.3
20260507200034 59 238 1.0 8.0 0.00 0.00 0.00 73 1020.4
20260507194523 59 207 0.0 6.0 0.00 0.00 0.00 72 1020.5
20260507193134 58 240 1.0 5.0 0.00 0.00 0.00 75 1020.6
20260507191542 57 221 0.0 7.0 0.00 0.00 0.00 76 1020.7
20260507190032 56 235 2.0 6.0 0.00 0.00 0.00 78 1020.8
20260507184527 56 228 2.0 7.0 0.00 0.00 0.00 75 1020.9
20260507183041 56 199 3.0 7.0 0.00 0.00 0.00 72 1020.9
20260507181551 56 200 1.0 7.0 0.00 0.00 0.00 75 1020.9
20260507180056 55 236 2.0 8.0 0.00 0.00 0.00 77 1020.8
20260507174541 54 193 3.0 7.0 0.00 0.00 0.00 74 1020.8
20260507173103 54 233 3.0 7.0 0.00 0.00 0.00 76 1021.0
20260507171550 55 259 3.0 9.0 0.00 0.00 0.00 75 1021.0
20260507170054 54 181 4.0 9.0 0.00 0.00 0.00 77 1020.9
20260507164541 53 183 4.0 9.0 0.00 0.00 0.00 76 1021.0
20260507163044 53 199 4.0 10.0 0.00 0.00 0.00 76 1021.1
20260507161617 53 238 2.0 8.0 0.00 0.00 0.00 77 1021.1
20260507160120 51 214 1.0 7.0 0.00 0.00 0.00 79 1021.2
20260507154552 51 187 1.0 4.0 0.00 0.00 0.00 79 1021.3
20260507153056 51 204 3.0 5.0 0.00 0.00 0.00 82 1021.4
20260507151600 50 172 3.0 5.0 0.00 0.00 0.00 84 1021.4
20260507144601 49 212 0.0 2.0 0.00 0.00 0.00 88 1021.4
20260507143108 48 212 0.0 2.0 0.00 0.00 0.00 90 1021.3
20260507141625 48 192 0.0 0.0 0.00 0.00 0.00 91 1021.3
20260507140112 47 192 0.0 0.0 0.00 0.00 0.00 92 1021.2
20260507134601 47 192 0.0 0.0 0.00 0.00 0.00 92 1021.1
20260507133055 46 192 0.0 0.0 0.00 0.00 0.00 92 1021.0
20260507131601 45 192 0.0 1.0 0.00 0.00 0.00 92 1021.1
20260507130112 45 192 0.0 2.0 0.00 0.00 0.00 92 1021.1
20260507124600 44 188 0.0 1.0 0.00 0.00 0.00 92 1021.0
20260507123101 44 188 0.0 1.0 0.00 0.00 0.00 92 1021.2
20260507121508 43 186 0.0 3.0 0.00 0.00 0.00 92 1021.2
20260507120116 43 198 1.0 2.0 0.00 0.00 0.00 91 1021.2
20260507114605 43 224 0.0 0.0 0.00 0.00 0.00 90 1021.4
20260507113004 44 224 0.0 0.0 0.00 0.00 0.00 89 1021.4
20260507111509 45 224 0.0 0.0 0.00 0.00 0.00 89 1021.2
20260507110121 46 224 0.0 3.0 0.00 0.00 0.00 89 1021.3
20260507104505 46 204 0.0 3.0 0.00 0.00 0.00 90 1021.3
20260507103007 46 193 0.0 2.0 0.00 0.00 0.00 90 1021.5
20260507101516 47 200 0.0 2.0 0.00 0.00 0.00 89 1021.4
20260507100119 48 200 0.0 1.0 0.00 0.00 0.00 88 1021.4
20260507094604 48 181 0.0 2.0 0.00 0.00 0.00 88 1021.5
20260507093004 49 224 2.0 4.0 0.00 0.00 0.00 88 1021.5
20260507091508 49 186 0.0 3.0 0.00 0.00 0.00 88 1021.6
20260507090114 49 193 2.0 5.0 0.00 0.00 0.00 88 1021.7
20260507084601 49 190 1.0 3.0 0.00 0.00 0.00 88 1021.6
20260507083102 50 183 1.0 6.0 0.00 0.00 0.00 87 1021.5
20260507081501 50 203 3.0 6.0 0.00 0.00 0.00 86 1021.5
20260507080119 50 195 0.0 1.0 0.00 0.00 0.00 87 1021.5
20260507074604 50 227 0.0 5.0 0.00 0.00 0.00 88 1021.2
20260507073003 50 186 1.0 4.0 0.00 0.00 0.00 89 1020.9
20260507071506 50 223 3.0 6.0 0.00 0.00 0.00 88 1021.0
20260507070114 51 203 1.0 4.0 0.00 0.00 0.00 87 1021.1
20260507064618 51 216 0.0 3.0 0.00 0.00 0.00 87 1021.1
20260507063101 51 191 0.0 2.0 0.00 0.00 0.00 88 1021.1
20260507061503 51 188 1.0 6.0 0.00 0.00 0.00 89 1020.9
20260507060108 51 233 1.0 5.0 0.00 0.00 0.00 90 1021.0
20260507054602 51 230 0.0 2.0 0.00 0.00 0.00 90 1021.1
20260507053055 51 230 0.0 2.0 0.00 0.00 0.00 90 1021.1
20260507051558 51 197 1.0 4.0 0.00 0.00 0.00 89 1021.2
20260507044548 51 205 1.0 8.0 0.00 0.00 0.00 88 1021.3
20260507043059 52 207 3.0 10.0 0.00 0.00 0.00 88 1021.2
20260507041605 52 174 3.0 13.0 0.00 0.00 0.00 88 1021.1
20260507040100 52 200 3.0 8.0 0.00 0.00 0.00 88 1021.0
20260507034548 53 215 4.0 10.0 0.00 0.00 0.00 87 1021.0